Year,Month,Day,Hour,Minute,Value (Times are PST for insolation in W/m^2)
2006,06,19,00,00,0.00
2006,06,19,00,01,0.00
2006,06,19,00,02,0.00
2006,06,19,00,03,0.00
2006,06,19,00,04,0.00
2006,06,19,00,05,0.00
2006,06,19,00,06,0.00
2006,06,19,00,07,0.00
2006,06,19,00,08,0.00
2006,06,19,00,09,0.00
2006,06,19,00,10,0.00
2006,06,19,00,11,0.00
2006,06,19,00,12,0.00
2006,06,19,00,13,0.00
2006,06,19,00,14,0.00
2006,06,19,00,15,0.00
2006,06,19,00,16,0.00
2006,06,19,00,17,0.00
2006,06,19,00,18,0.00
2006,06,19,00,19,0.00
2006,06,19,00,20,0.00
2006,06,19,00,21,0.00
2006,06,19,00,22,0.00
2006,06,19,00,23,0.00
2006,06,19,00,24,0.00
2006,06,19,00,25,0.00
2006,06,19,00,26,0.00
2006,06,19,00,27,0.00
2006,06,19,00,28,0.00
2006,06,19,00,29,0.00
2006,06,19,00,30,0.00
2006,06,19,00,31,0.00
2006,06,19,00,32,0.00
2006,06,19,00,33,0.00
2006,06,19,00,34,0.00
2006,06,19,00,35,0.00
2006,06,19,00,36,0.00
2006,06,19,00,37,0.00
2006,06,19,00,38,0.00
2006,06,19,00,39,0.00
2006,06,19,00,40,0.00
2006,06,19,00,41,0.00
2006,06,19,00,42,0.00
2006,06,19,00,43,0.00
2006,06,19,00,44,0.00
2006,06,19,00,45,0.00
2006,06,19,00,46,0.00
2006,06,19,00,47,0.00
2006,06,19,00,48,0.00
2006,06,19,00,49,0.00
2006,06,19,00,50,0.00
2006,06,19,00,51,0.00
2006,06,19,00,52,0.00
2006,06,19,00,53,0.00
2006,06,19,00,54,0.00
2006,06,19,00,55,0.00
2006,06,19,00,56,0.00
2006,06,19,00,57,0.00
2006,06,19,00,58,0.00
2006,06,19,00,59,0.00
2006,06,19,01,00,0.00
2006,06,19,01,01,0.00
2006,06,19,01,02,0.00
2006,06,19,01,03,0.00
2006,06,19,01,04,0.00
2006,06,19,01,05,0.00
2006,06,19,01,06,0.00
2006,06,19,01,07,0.00
2006,06,19,01,08,0.00
2006,06,19,01,09,0.00
2006,06,19,01,10,0.00
2006,06,19,01,11,0.00
2006,06,19,01,12,0.00
2006,06,19,01,13,0.00
2006,06,19,01,14,0.00
2006,06,19,01,15,0.00
2006,06,19,01,16,0.00
2006,06,19,01,17,0.00
2006,06,19,01,18,0.00
2006,06,19,01,19,0.00
2006,06,19,01,20,0.00
2006,06,19,01,21,0.00
2006,06,19,01,22,0.00
2006,06,19,01,23,0.00
2006,06,19,01,24,0.00
2006,06,19,01,25,0.00
2006,06,19,01,26,0.00
2006,06,19,01,27,0.00
2006,06,19,01,28,0.00
2006,06,19,01,29,0.00
2006,06,19,01,30,0.00
2006,06,19,01,31,0.00
2006,06,19,01,32,0.00
2006,06,19,01,33,0.00
2006,06,19,01,34,0.00
2006,06,19,01,35,0.00
2006,06,19,01,36,0.00
2006,06,19,01,37,0.00
2006,06,19,01,38,0.00
2006,06,19,01,39,0.00
2006,06,19,01,40,0.00
2006,06,19,01,41,0.00
2006,06,19,01,42,0.00
2006,06,19,01,43,0.00
2006,06,19,01,44,0.00
2006,06,19,01,45,0.00
2006,06,19,01,46,0.00
2006,06,19,01,47,0.00
2006,06,19,01,48,0.00
2006,06,19,01,49,0.00
2006,06,19,01,50,0.00
2006,06,19,01,51,0.00
2006,06,19,01,52,0.00
2006,06,19,01,53,0.00
2006,06,19,01,54,0.00
2006,06,19,01,55,0.00
2006,06,19,01,56,0.00
2006,06,19,01,57,0.00
2006,06,19,01,58,0.00
2006,06,19,01,59,0.00
2006,06,19,02,00,0.00
2006,06,19,02,01,0.00
2006,06,19,02,02,0.00
2006,06,19,02,03,0.00
2006,06,19,02,04,0.00
2006,06,19,02,05,0.00
2006,06,19,02,06,0.00
2006,06,19,02,07,0.00
2006,06,19,02,08,0.00
2006,06,19,02,09,0.00
2006,06,19,02,10,0.00
2006,06,19,02,11,0.00
2006,06,19,02,12,0.00
2006,06,19,02,13,0.00
2006,06,19,02,14,0.00
2006,06,19,02,15,0.00
2006,06,19,02,16,0.00
2006,06,19,02,17,0.00
2006,06,19,02,18,0.00
2006,06,19,02,19,0.00
2006,06,19,02,20,0.00
2006,06,19,02,21,0.00
2006,06,19,02,22,0.00
2006,06,19,02,23,0.00
2006,06,19,02,24,0.00
2006,06,19,02,25,0.00
2006,06,19,02,26,0.00
2006,06,19,02,27,0.00
2006,06,19,02,28,0.00
2006,06,19,02,29,0.00
2006,06,19,02,30,0.00
2006,06,19,02,31,0.00
2006,06,19,02,32,0.00
2006,06,19,02,33,0.00
2006,06,19,02,34,0.00
2006,06,19,02,35,0.00
2006,06,19,02,36,0.00
2006,06,19,02,37,0.00
2006,06,19,02,38,0.00
2006,06,19,02,39,0.00
2006,06,19,02,40,0.00
2006,06,19,02,41,0.00
2006,06,19,02,42,0.00
2006,06,19,02,43,0.00
2006,06,19,02,44,0.00
2006,06,19,02,45,0.00
2006,06,19,02,46,0.00
2006,06,19,02,47,0.00
2006,06,19,02,48,0.00
2006,06,19,02,49,0.00
2006,06,19,02,50,0.00
2006,06,19,02,51,0.00
2006,06,19,02,52,0.00
2006,06,19,02,53,0.00
2006,06,19,02,54,0.00
2006,06,19,02,55,0.00
2006,06,19,02,56,0.00
2006,06,19,02,57,0.00
2006,06,19,02,58,0.00
2006,06,19,02,59,0.00
2006,06,19,03,00,0.00
2006,06,19,03,01,0.00
2006,06,19,03,02,0.00
2006,06,19,03,03,0.00
2006,06,19,03,04,0.00
2006,06,19,03,05,0.00
2006,06,19,03,06,0.00
2006,06,19,03,07,0.00
2006,06,19,03,08,0.00
2006,06,19,03,09,0.00
2006,06,19,03,10,0.00
2006,06,19,03,11,0.00
2006,06,19,03,12,0.00
2006,06,19,03,13,0.00
2006,06,19,03,14,0.00
2006,06,19,03,15,0.00
2006,06,19,03,16,0.00
2006,06,19,03,17,0.00
2006,06,19,03,18,0.00
2006,06,19,03,19,0.00
2006,06,19,03,20,0.00
2006,06,19,03,21,0.00
2006,06,19,03,22,0.00
2006,06,19,03,23,0.00
2006,06,19,03,24,0.00
2006,06,19,03,25,0.00
2006,06,19,03,26,0.00
2006,06,19,03,27,0.00
2006,06,19,03,28,0.00
2006,06,19,03,29,0.00
2006,06,19,03,30,0.00
2006,06,19,03,31,0.00
2006,06,19,03,32,0.00
2006,06,19,03,33,0.00
2006,06,19,03,34,0.00
2006,06,19,03,35,0.00
2006,06,19,03,36,0.00
2006,06,19,03,37,0.00
2006,06,19,03,38,0.00
2006,06,19,03,39,0.00
2006,06,19,03,40,0.00
2006,06,19,03,41,0.00
2006,06,19,03,42,0.00
2006,06,19,03,43,0.00
2006,06,19,03,44,0.00
2006,06,19,03,45,0.00
2006,06,19,03,46,0.00
2006,06,19,03,47,0.00
2006,06,19,03,48,0.00
2006,06,19,03,49,0.00
2006,06,19,03,50,0.00
2006,06,19,03,51,0.00
2006,06,19,03,52,0.00
2006,06,19,03,53,0.00
2006,06,19,03,54,0.00
2006,06,19,03,55,0.00
2006,06,19,03,56,0.00
2006,06,19,03,57,0.00
2006,06,19,03,58,0.00
2006,06,19,03,59,0.00
2006,06,19,04,00,0.00
2006,06,19,04,01,0.00
2006,06,19,04,02,0.00
2006,06,19,04,03,0.00
2006,06,19,04,04,0.00
2006,06,19,04,05,0.00
2006,06,19,04,06,0.00
2006,06,19,04,07,0.00
2006,06,19,04,08,0.00
2006,06,19,04,09,0.00
2006,06,19,04,10,0.00
2006,06,19,04,11,0.00
2006,06,19,04,12,0.00
2006,06,19,04,13,0.00
2006,06,19,04,14,0.00
2006,06,19,04,15,0.00
2006,06,19,04,16,0.00
2006,06,19,04,17,0.00
2006,06,19,04,18,0.00
2006,06,19,04,19,0.00
2006,06,19,04,20,0.00
2006,06,19,04,21,0.00
2006,06,19,04,22,0.00
2006,06,19,04,23,0.00
2006,06,19,04,24,0.00
2006,06,19,04,25,0.00
2006,06,19,04,26,0.00
2006,06,19,04,27,0.00
2006,06,19,04,28,0.00
2006,06,19,04,29,0.00
2006,06,19,04,30,0.00
2006,06,19,04,31,0.00
2006,06,19,04,32,0.00
2006,06,19,04,33,0.00
2006,06,19,04,34,0.00
2006,06,19,04,35,0.00
2006,06,19,04,36,0.00
2006,06,19,04,37,0.00
2006,06,19,04,38,0.00
2006,06,19,04,39,0.00
2006,06,19,04,40,0.00
2006,06,19,04,41,0.00
2006,06,19,04,42,0.00
2006,06,19,04,43,0.00
2006,06,19,04,44,0.00
2006,06,19,04,45,0.00
2006,06,19,04,46,0.00
2006,06,19,04,47,0.00
2006,06,19,04,48,0.00
2006,06,19,04,49,0.00
2006,06,19,04,50,0.00
2006,06,19,04,51,0.00
2006,06,19,04,52,0.00
2006,06,19,04,53,0.00
2006,06,19,04,54,0.00
2006,06,19,04,55,0.00
2006,06,19,04,56,0.00
2006,06,19,04,57,0.00
2006,06,19,04,58,0.00
2006,06,19,04,59,0.00
2006,06,19,05,00,0.00
2006,06,19,05,01,0.00
2006,06,19,05,02,0.00
2006,06,19,05,03,0.00
2006,06,19,05,04,0.00
2006,06,19,05,05,0.00
2006,06,19,05,06,0.00
2006,06,19,05,07,0.00
2006,06,19,05,08,0.00
2006,06,19,05,09,0.00
2006,06,19,05,10,0.00
2006,06,19,05,11,0.00
2006,06,19,05,12,0.00
2006,06,19,05,13,0.00
2006,06,19,05,14,0.00
2006,06,19,05,15,0.00
2006,06,19,05,16,0.00
2006,06,19,05,17,3.90
2006,06,19,05,18,5.00
2006,06,19,05,19,5.00
2006,06,19,05,20,5.00
2006,06,19,05,21,6.00
2006,06,19,05,22,7.00
2006,06,19,05,23,7.00
2006,06,19,05,24,7.00
2006,06,19,05,25,7.00
2006,06,19,05,26,7.60
2006,06,19,05,27,9.00
2006,06,19,05,28,9.00
2006,06,19,05,29,10.60
2006,06,19,05,30,11.00
2006,06,19,05,31,11.00
2006,06,19,05,32,11.40
2006,06,19,05,33,12.00
2006,06,19,05,34,12.00
2006,06,19,05,35,12.00
2006,06,19,05,36,12.00
2006,06,19,05,37,12.00
2006,06,19,05,38,12.80
2006,06,19,05,39,14.00
2006,06,19,05,40,14.00
2006,06,19,05,41,14.00
2006,06,19,05,42,14.00
2006,06,19,05,43,14.50
2006,06,19,05,44,16.00
2006,06,19,05,45,16.00
2006,06,19,05,46,16.00
2006,06,19,05,47,16.00
2006,06,19,05,48,16.30
2006,06,19,05,49,18.00
2006,06,19,05,50,18.50
2006,06,19,05,51,19.00
2006,06,19,05,52,19.00
2006,06,19,05,53,19.00
2006,06,19,05,54,19.00
2006,06,19,05,55,19.60
2006,06,19,05,56,21.00
2006,06,19,05,57,21.00
2006,06,19,05,58,21.00
2006,06,19,05,59,21.00
2006,06,19,06,00,21.30
2006,06,19,06,01,23.00
2006,06,19,06,02,23.00
2006,06,19,06,03,23.00
2006,06,19,06,04,23.00
2006,06,19,06,05,24.80
2006,06,19,06,06,25.00
2006,06,19,06,07,25.00
2006,06,19,06,08,25.50
2006,06,19,06,09,26.00
2006,06,19,06,10,26.00
2006,06,19,06,11,26.00
2006,06,19,06,12,26.50
2006,06,19,06,13,28.00
2006,06,19,06,14,28.00
2006,06,19,06,15,26.70
2006,06,19,06,16,26.00
2006,06,19,06,17,26.30
2006,06,19,06,18,28.00
2006,06,19,06,19,28.00
2006,06,19,06,20,28.00
2006,06,19,06,21,28.00
2006,06,19,06,22,28.00
2006,06,19,06,23,28.00
2006,06,19,06,24,27.40
2006,06,19,06,25,26.00
2006,06,19,06,26,27.20
2006,06,19,06,27,28.00
2006,06,19,06,28,28.00
2006,06,19,06,29,28.00
2006,06,19,06,30,28.00
2006,06,19,06,31,28.00
2006,06,19,06,32,30.30
2006,06,19,06,33,32.00
2006,06,19,06,34,32.90
2006,06,19,06,35,33.00
2006,06,19,06,36,33.00
2006,06,19,06,37,33.00
2006,06,19,06,38,32.40
2006,06,19,06,39,32.00
2006,06,19,06,40,32.00
2006,06,19,06,41,32.00
2006,06,19,06,42,32.30
2006,06,19,06,43,33.00
2006,06,19,06,44,33.00
2006,06,19,06,45,34.60
2006,06,19,06,46,35.20
2006,06,19,06,47,37.00
2006,06,19,06,48,37.00
2006,06,19,06,49,38.00
2006,06,19,06,50,44.20
2006,06,19,06,51,41.30
2006,06,19,06,52,42.10
2006,06,19,06,53,48.00
2006,06,19,06,54,56.00
2006,06,19,06,55,49.00
2006,06,19,06,56,58.00
2006,06,19,06,57,52.90
2006,06,19,06,58,52.90
2006,06,19,06,59,53.00
2006,06,19,07,00,55.00
2006,06,19,07,01,58.00
2006,06,19,07,02,56.50
2006,06,19,07,03,59.30
2006,06,19,07,04,68.60
2006,06,19,07,05,80.00
2006,06,19,07,06,85.10
2006,06,19,07,07,92.00
2006,06,19,07,08,98.50
2006,06,19,07,09,104.30
2006,06,19,07,10,105.80
2006,06,19,07,11,111.60
2006,06,19,07,12,113.40
2006,06,19,07,13,115.20
2006,06,19,07,14,116.00
2006,06,19,07,15,116.10
2006,06,19,07,16,117.20
2006,06,19,07,17,112.50
2006,06,19,07,18,106.80
2006,06,19,07,19,100.30
2006,06,19,07,20,95.80
2006,06,19,07,21,93.40
2006,06,19,07,22,97.50
2006,06,19,07,23,93.70
2006,06,19,07,24,91.00
2006,06,19,07,25,99.10
2006,06,19,07,26,122.00
2006,06,19,07,27,105.20
2006,06,19,07,28,91.20
2006,06,19,07,29,101.90
2006,06,19,07,30,93.50
2006,06,19,07,31,97.00
2006,06,19,07,32,99.30
2006,06,19,07,33,116.70
2006,06,19,07,34,202.00
2006,06,19,07,35,256.00
2006,06,19,07,36,297.00
2006,06,19,07,37,236.00
2006,06,19,07,38,291.10
2006,06,19,07,39,307.70
2006,06,19,07,40,337.20
2006,06,19,07,41,346.90
2006,06,19,07,42,339.00
2006,06,19,07,43,203.30
2006,06,19,07,44,117.00
2006,06,19,07,45,113.00
2006,06,19,07,46,189.40
2006,06,19,07,47,341.10
2006,06,19,07,48,301.80
2006,06,19,07,49,314.40
2006,06,19,07,50,360.30
2006,06,19,07,51,366.90
2006,06,19,07,52,366.00
2006,06,19,07,53,366.00
2006,06,19,07,54,366.60
2006,06,19,07,55,364.80
2006,06,19,07,56,362.60
2006,06,19,07,57,369.00
2006,06,19,07,58,371.10
2006,06,19,07,59,372.80
2006,06,19,08,00,372.00
2006,06,19,08,01,373.20
2006,06,19,08,02,353.00
2006,06,19,08,03,375.20
2006,06,19,08,04,380.00
2006,06,19,08,05,380.00
2006,06,19,08,06,384.50
2006,06,19,08,07,387.80
2006,06,19,08,08,388.10
2006,06,19,08,09,390.80
2006,06,19,08,10,395.10
2006,06,19,08,11,398.00
2006,06,19,08,12,401.60
2006,06,19,08,13,403.80
2006,06,19,08,14,408.00
2006,06,19,08,15,410.20
2006,06,19,08,16,411.80
2006,06,19,08,17,414.00
2006,06,19,08,18,416.30
2006,06,19,08,19,419.50
2006,06,19,08,20,422.10
2006,06,19,08,21,424.20
2006,06,19,08,22,426.60
2006,06,19,08,23,431.70
2006,06,19,08,24,434.00
2006,06,19,08,25,437.30
2006,06,19,08,26,441.30
2006,06,19,08,27,443.60
2006,06,19,08,28,445.00
2006,06,19,08,29,447.70
2006,06,19,08,30,451.40
2006,06,19,08,31,452.00
2006,06,19,08,32,455.00
2006,06,19,08,33,455.00
2006,06,19,08,34,458.90
2006,06,19,08,35,465.20
2006,06,19,08,36,466.00
2006,06,19,08,37,466.00
2006,06,19,08,38,473.30
2006,06,19,08,39,475.90
2006,06,19,08,40,478.90
2006,06,19,08,41,481.20
2006,06,19,08,42,482.80
2006,06,19,08,43,486.70
2006,06,19,08,44,489.50
2006,06,19,08,45,493.50
2006,06,19,08,46,496.50
2006,06,19,08,47,498.20
2006,06,19,08,48,502.10
2006,06,19,08,49,504.10
2006,06,19,08,50,506.40
2006,06,19,08,51,509.40
2006,06,19,08,52,512.50
2006,06,19,08,53,515.60
2006,06,19,08,54,518.60
2006,06,19,08,55,520.30
2006,06,19,08,56,524.70
2006,06,19,08,57,527.00
2006,06,19,08,58,529.10
2006,06,19,08,59,533.00
2006,06,19,09,00,535.70
2006,06,19,09,01,538.20
2006,06,19,09,02,540.80
2006,06,19,09,03,543.80
2006,06,19,09,04,546.60
2006,06,19,09,05,549.40
2006,06,19,09,06,551.70
2006,06,19,09,07,552.00
2006,06,19,09,08,554.00
2006,06,19,09,09,559.90
2006,06,19,09,10,562.70
2006,06,19,09,11,565.40
2006,06,19,09,12,566.00
2006,06,19,09,13,570.20
2006,06,19,09,14,571.60
2006,06,19,09,15,574.70
2006,06,19,09,16,577.60
2006,06,19,09,17,579.50
2006,06,19,09,18,583.50
2006,06,19,09,19,584.00
2006,06,19,09,20,586.20
2006,06,19,09,21,591.50
2006,06,19,09,22,592.00
2006,06,19,09,23,592.00
2006,06,19,09,24,592.40
2006,06,19,09,25,603.00
2006,06,19,09,26,604.00
2006,06,19,09,27,607.00
2006,06,19,09,28,608.00
2006,06,19,09,29,608.00
2006,06,19,09,30,608.00
2006,06,19,09,31,610.40
2006,06,19,09,32,619.70
2006,06,19,09,33,621.50
2006,06,19,09,34,624.70
2006,06,19,09,35,626.00
2006,06,19,09,36,629.00
2006,06,19,09,37,631.00
2006,06,19,09,38,633.00
2006,06,19,09,39,637.10
2006,06,19,09,40,639.30
2006,06,19,09,41,641.70
2006,06,19,09,42,644.90
2006,06,19,09,43,646.20
2006,06,19,09,44,651.60
2006,06,19,09,45,655.10
2006,06,19,09,46,656.70
2006,06,19,09,47,658.70
2006,06,19,09,48,659.50
2006,06,19,09,49,663.80
2006,06,19,09,50,666.90
2006,06,19,09,51,668.00
2006,06,19,09,52,670.20
2006,06,19,09,53,672.70
2006,06,19,09,54,674.00
2006,06,19,09,55,679.30
2006,06,19,09,56,680.90
2006,06,19,09,57,683.10
2006,06,19,09,58,685.50
2006,06,19,09,59,686.90
2006,06,19,10,00,687.00
2006,06,19,10,01,689.20
2006,06,19,10,02,694.90
2006,06,19,10,03,697.20
2006,06,19,10,04,699.50
2006,06,19,10,05,702.80
2006,06,19,10,06,705.30
2006,06,19,10,07,707.90
2006,06,19,10,08,711.90
2006,06,19,10,09,715.90
2006,06,19,10,10,717.00
2006,06,19,10,11,717.00
2006,06,19,10,12,719.50
2006,06,19,10,13,730.50
2006,06,19,10,14,734.90
2006,06,19,10,15,740.30
2006,06,19,10,16,744.30
2006,06,19,10,17,745.80
2006,06,19,10,18,754.50
2006,06,19,10,19,758.30
2006,06,19,10,20,765.70
2006,06,19,10,21,772.90
2006,06,19,10,22,785.60
2006,06,19,10,23,800.70
2006,06,19,10,24,816.50
2006,06,19,10,25,828.50
2006,06,19,10,26,855.00
2006,06,19,10,27,872.00
2006,06,19,10,28,872.00
2006,06,19,10,29,744.00
2006,06,19,10,30,744.00
2006,06,19,10,31,744.00
2006,06,19,10,32,744.00
2006,06,19,10,33,453.60
2006,06,19,10,34,309.70
2006,06,19,10,35,306.00
2006,06,19,10,36,306.00
2006,06,19,10,37,306.00
2006,06,19,10,38,315.30
2006,06,19,10,39,322.00
2006,06,19,10,40,322.00
2006,06,19,10,41,422.90
2006,06,19,10,42,899.30
2006,06,19,10,43,893.00
2006,06,19,10,44,889.80
2006,06,19,10,45,888.70
2006,06,19,10,46,891.10
2006,06,19,10,47,898.00
2006,06,19,10,48,898.00
2006,06,19,10,49,901.50
2006,06,19,10,50,918.00
2006,06,19,10,51,923.40
2006,06,19,10,52,920.70
2006,06,19,10,53,914.90
2006,06,19,10,54,908.80
2006,06,19,10,55,900.00
2006,06,19,10,56,887.80
2006,06,19,10,57,876.20
2006,06,19,10,58,861.30
2006,06,19,10,59,856.40
2006,06,19,11,00,850.20
2006,06,19,11,01,848.00
2006,06,19,11,02,847.00
2006,06,19,11,03,842.90
2006,06,19,11,04,842.20
2006,06,19,11,05,844.80
2006,06,19,11,06,848.70
2006,06,19,11,07,855.00
2006,06,19,11,08,859.40
2006,06,19,11,09,864.20
2006,06,19,11,10,870.90
2006,06,19,11,11,878.80
2006,06,19,11,12,886.10
2006,06,19,11,13,887.20
2006,06,19,11,14,889.70
2006,06,19,11,15,873.70
2006,06,19,11,16,870.00
2006,06,19,11,17,870.00
2006,06,19,11,18,860.20
2006,06,19,11,19,843.70
2006,06,19,11,20,842.00
2006,06,19,11,21,842.20
2006,06,19,11,22,847.30
2006,06,19,11,23,849.00
2006,06,19,11,24,850.00
2006,06,19,11,25,852.20
2006,06,19,11,26,855.20
2006,06,19,11,27,856.10
2006,06,19,11,28,858.40
2006,06,19,11,29,860.30
2006,06,19,11,30,861.00
2006,06,19,11,31,861.00
2006,06,19,11,32,862.50
2006,06,19,11,33,866.70
2006,06,19,11,34,868.40
2006,06,19,11,35,870.00
2006,06,19,11,36,871.00
2006,06,19,11,37,872.00
2006,06,19,11,38,873.60
2006,06,19,11,39,875.10
2006,06,19,11,40,877.00
2006,06,19,11,41,876.20
2006,06,19,11,42,877.10
2006,06,19,11,43,879.00
2006,06,19,11,44,877.40
2006,06,19,11,45,877.50
2006,06,19,11,46,880.50
2006,06,19,11,47,881.00
2006,06,19,11,48,884.00
2006,06,19,11,49,884.00
2006,06,19,11,50,887.30
2006,06,19,11,51,889.00
2006,06,19,11,52,889.60
2006,06,19,11,53,892.60
2006,06,19,11,54,895.00
2006,06,19,11,55,897.10
2006,06,19,11,56,898.00
2006,06,19,11,57,898.00
2006,06,19,11,58,898.00
2006,06,19,11,59,898.00
2006,06,19,12,00,898.00
2006,06,19,12,01,898.00
2006,06,19,12,02,896.20
2006,06,19,12,03,897.00
2006,06,19,12,04,902.00
2006,06,19,12,05,902.00
2006,06,19,12,06,902.00
2006,06,19,12,07,904.30
2006,06,19,12,08,905.00
2006,06,19,12,09,905.00
2006,06,19,12,10,907.10
2006,06,19,12,11,911.00
2006,06,19,12,12,911.00
2006,06,19,12,13,911.00
2006,06,19,12,14,913.70
2006,06,19,12,15,914.00
2006,06,19,12,16,915.50
2006,06,19,12,17,917.00
2006,06,19,12,18,917.30
2006,06,19,12,19,918.00
2006,06,19,12,20,915.90
2006,06,19,12,21,914.00
2006,06,19,12,22,914.00
2006,06,19,12,23,916.50
2006,06,19,12,24,919.00
2006,06,19,12,25,919.00
2006,06,19,12,26,919.50
2006,06,19,12,27,923.50
2006,06,19,12,28,925.00
2006,06,19,12,29,925.00
2006,06,19,12,30,925.00
2006,06,19,12,31,923.30
2006,06,19,12,32,925.10
2006,06,19,12,33,925.70
2006,06,19,12,34,925.00
2006,06,19,12,35,925.00
2006,06,19,12,36,925.70
2006,06,19,12,37,927.70
2006,06,19,12,38,928.00
2006,06,19,12,39,928.00
2006,06,19,12,40,928.00
2006,06,19,12,41,928.00
2006,06,19,12,42,928.00
2006,06,19,12,43,929.70
2006,06,19,12,44,930.00
2006,06,19,12,45,930.00
2006,06,19,12,46,930.00
2006,06,19,12,47,931.80
2006,06,19,12,48,933.00
2006,06,19,12,49,933.20
2006,06,19,12,50,936.10
2006,06,19,12,51,932.70
2006,06,19,12,52,932.50
2006,06,19,12,53,932.40
2006,06,19,12,54,932.00
2006,06,19,12,55,932.10
2006,06,19,12,56,934.60
2006,06,19,12,57,933.00
2006,06,19,12,58,934.00
2006,06,19,12,59,935.00
2006,06,19,13,00,935.00
2006,06,19,13,01,935.00
2006,06,19,13,02,935.00
2006,06,19,13,03,935.00
2006,06,19,13,04,934.00
2006,06,19,13,05,932.30
2006,06,19,13,06,934.50
2006,06,19,13,07,935.00
2006,06,19,13,08,935.00
2006,06,19,13,09,935.00
2006,06,19,13,10,936.10
2006,06,19,13,11,937.00
2006,06,19,13,12,937.00
2006,06,19,13,13,937.00
2006,06,19,13,14,937.00
2006,06,19,13,15,937.90
2006,06,19,13,16,939.00
2006,06,19,13,17,939.00
2006,06,19,13,18,941.60
2006,06,19,13,19,940.00
2006,06,19,13,20,940.60
2006,06,19,13,21,942.00
2006,06,19,13,22,940.80
2006,06,19,13,23,940.00
2006,06,19,13,24,940.00
2006,06,19,13,25,940.00
2006,06,19,13,26,939.10
2006,06,19,13,27,938.00
2006,06,19,13,28,936.60
2006,06,19,13,29,936.50
2006,06,19,13,30,936.80
2006,06,19,13,31,933.80
2006,06,19,13,32,937.00
2006,06,19,13,33,937.00
2006,06,19,13,34,935.80
2006,06,19,13,35,935.00
2006,06,19,13,36,934.80
2006,06,19,13,37,933.40
2006,06,19,13,38,935.00
2006,06,19,13,39,935.00
2006,06,19,13,40,955.90
2006,06,19,13,41,942.30
2006,06,19,13,42,934.80
2006,06,19,13,43,933.00
2006,06,19,13,44,933.00
2006,06,19,13,45,932.50
2006,06,19,13,46,932.00
2006,06,19,13,47,932.00
2006,06,19,13,48,930.10
2006,06,19,13,49,930.00
2006,06,19,13,50,930.00
2006,06,19,13,51,931.50
2006,06,19,13,52,930.80
2006,06,19,13,53,930.00
2006,06,19,13,54,930.00
2006,06,19,13,55,929.50
2006,06,19,13,56,928.00
2006,06,19,13,57,928.00
2006,06,19,13,58,928.00
2006,06,19,13,59,928.00
2006,06,19,14,00,928.00
2006,06,19,14,01,927.40
2006,06,19,14,02,926.00
2006,06,19,14,03,926.00
2006,06,19,14,04,923.80
2006,06,19,14,05,923.00
2006,06,19,14,06,920.70
2006,06,19,14,07,919.00
2006,06,19,14,08,919.00
2006,06,19,14,09,919.00
2006,06,19,14,10,919.00
2006,06,19,14,11,918.10
2006,06,19,14,12,918.00
2006,06,19,14,13,918.00
2006,06,19,14,14,918.00
2006,06,19,14,15,915.50
2006,06,19,14,16,915.50
2006,06,19,14,17,914.00
2006,06,19,14,18,912.00
2006,06,19,14,19,912.70
2006,06,19,14,20,913.00
2006,06,19,14,21,912.00
2006,06,19,14,22,909.70
2006,06,19,14,23,910.90
2006,06,19,14,24,910.60
2006,06,19,14,25,909.00
2006,06,19,14,26,906.90
2006,06,19,14,27,905.00
2006,06,19,14,28,905.00
2006,06,19,14,29,903.80
2006,06,19,14,30,902.00
2006,06,19,14,31,902.00
2006,06,19,14,32,901.00
2006,06,19,14,33,898.60
2006,06,19,14,34,898.00
2006,06,19,14,35,898.00
2006,06,19,14,36,898.00
2006,06,19,14,37,896.80
2006,06,19,14,38,895.50
2006,06,19,14,39,893.90
2006,06,19,14,40,893.00
2006,06,19,14,41,892.60
2006,06,19,14,42,890.40
2006,06,19,14,43,888.50
2006,06,19,14,44,888.00
2006,06,19,14,45,886.50
2006,06,19,14,46,885.90
2006,06,19,14,47,884.00
2006,06,19,14,48,883.30
2006,06,19,14,49,882.00
2006,06,19,14,50,881.40
2006,06,19,14,51,881.00
2006,06,19,14,52,879.10
2006,06,19,14,53,877.00
2006,06,19,14,54,877.00
2006,06,19,14,55,877.00
2006,06,19,14,56,873.90
2006,06,19,14,57,872.00
2006,06,19,14,58,872.00
2006,06,19,14,59,871.20
2006,06,19,15,00,868.00
2006,06,19,15,01,866.60
2006,06,19,15,02,862.40
2006,06,19,15,03,861.00
2006,06,19,15,04,861.00
2006,06,19,15,05,860.80
2006,06,19,15,06,859.20
2006,06,19,15,07,855.80
2006,06,19,15,08,855.30
2006,06,19,15,09,854.30
2006,06,19,15,10,851.10
2006,06,19,15,11,851.00
2006,06,19,15,12,851.00
2006,06,19,15,13,848.80
2006,06,19,15,14,846.30
2006,06,19,15,15,846.00
2006,06,19,15,16,844.00
2006,06,19,15,17,844.00
2006,06,19,15,18,843.10
2006,06,19,15,19,840.90
2006,06,19,15,20,838.60
2006,06,19,15,21,837.10
2006,06,19,15,22,833.00
2006,06,19,15,23,832.40
2006,06,19,15,24,830.60
2006,06,19,15,25,830.00
2006,06,19,15,26,827.00
2006,06,19,15,27,825.90
2006,06,19,15,28,823.80
2006,06,19,15,29,823.00
2006,06,19,15,30,823.00
2006,06,19,15,31,823.00
2006,06,19,15,32,818.40
2006,06,19,15,33,817.00
2006,06,19,15,34,816.00
2006,06,19,15,35,815.30
2006,06,19,15,36,814.00
2006,06,19,15,37,811.40
2006,06,19,15,38,810.00
2006,06,19,15,39,809.60
2006,06,19,15,40,804.50
2006,06,19,15,41,802.60
2006,06,19,15,42,800.00
2006,06,19,15,43,798.00
2006,06,19,15,44,798.00
2006,06,19,15,45,795.00
2006,06,19,15,46,793.00
2006,06,19,15,47,792.20
2006,06,19,15,48,789.90
2006,06,19,15,49,789.00
2006,06,19,15,50,786.50
2006,06,19,15,51,783.90
2006,06,19,15,52,782.00
2006,06,19,15,53,781.20
2006,06,19,15,54,779.50
2006,06,19,15,55,777.70
2006,06,19,15,56,777.00
2006,06,19,15,57,773.00
2006,06,19,15,58,773.00
2006,06,19,15,59,771.30
2006,06,19,16,00,766.30
2006,06,19,16,01,765.00
2006,06,19,16,02,765.00
2006,06,19,16,03,762.70
2006,06,19,16,04,761.00
2006,06,19,16,05,758.70
2006,06,19,16,06,754.70
2006,06,19,16,07,754.00
2006,06,19,16,08,752.10
2006,06,19,16,09,748.70
2006,06,19,16,10,746.40
2006,06,19,16,11,745.00
2006,06,19,16,12,744.40
2006,06,19,16,13,742.50
2006,06,19,16,14,742.00
2006,06,19,16,15,742.00
2006,06,19,16,16,739.60
2006,06,19,16,17,734.10
2006,06,19,16,18,730.40
2006,06,19,16,19,725.10
2006,06,19,16,20,706.20
2006,06,19,16,21,695.80
2006,06,19,16,22,682.20
2006,06,19,16,23,688.40
2006,06,19,16,24,637.70
2006,06,19,16,25,647.60
2006,06,19,16,26,708.00
2006,06,19,16,27,715.00
2006,06,19,16,28,714.60
2006,06,19,16,29,712.00
2006,06,19,16,30,710.00
2006,06,19,16,31,704.30
2006,06,19,16,32,700.50
2006,06,19,16,33,694.10
2006,06,19,16,34,689.80
2006,06,19,16,35,688.80
2006,06,19,16,36,687.00
2006,06,19,16,37,680.30
2006,06,19,16,38,671.00
2006,06,19,16,39,667.50
2006,06,19,16,40,659.00
2006,06,19,16,41,659.00
2006,06,19,16,42,665.30
2006,06,19,16,43,675.80
2006,06,19,16,44,678.70
2006,06,19,16,45,677.00
2006,06,19,16,46,677.00
2006,06,19,16,47,677.00
2006,06,19,16,48,675.50
2006,06,19,16,49,657.10
2006,06,19,16,50,665.60
2006,06,19,16,51,664.60
2006,06,19,16,52,666.90
2006,06,19,16,53,671.00
2006,06,19,16,54,674.50
2006,06,19,16,55,670.70
2006,06,19,16,56,674.70
2006,06,19,16,57,669.20
2006,06,19,16,58,661.00
2006,06,19,16,59,611.70
2006,06,19,17,00,537.70
2006,06,19,17,01,521.80
2006,06,19,17,02,471.50
2006,06,19,17,03,459.00
2006,06,19,17,04,496.60
2006,06,19,17,05,551.90
2006,06,19,17,06,559.70
2006,06,19,17,07,543.40